Wind_Speed
63 62 62 61 60 59 60 62 64 63 62 58 58 62 63 62 60 60 59 59 59 60 61 61 62 62 62 62 62 61 61 60 60 59 58 57 57 56 55 54 53 53
61 59 59 58 57 55 54 58 61 61 59 57 57 59 59 58 58 59 59 62 64 66 67 67 68 69 69 68 66 64 63 63 63 62 61 60 59 59 58 58 57 57
58 57 56 55 52 47 45 49 54 56 57 58 60 60 59 59 60 62 66 70 74 76 76 77 78 78 76 75 72 68 66 65 65 64 63 64 64 63 63 62 62 62
54 52 51 51 48 44 45 52 57 60 62 63 64 64 63 65 67 71 76 80 83 84 85 85 86 85 82 78 73 70 69 68 68 67 67 68 69 69 68 67 67 67
53 51 50 51 50 51 55 58 59 62 65 67 69 71 72 75 79 82 86 88 90 90 90 91 92 91 88 82 77 74 73 72 70 70 70 72 73 72 70 70 70 70
61 61 59 58 59 61 63 65 67 71 77 81 84 85 87 89 90 92 93 94 94 95 95 96 96 95 92 88 84 81 78 75 73 73 72 73 74 73 73 73 72 73
72 74 74 74 74 75 77 80 83 86 90 92 93 95 96 97 97 98 98 98 99 99 100 99 97 95 92 88 85 83 80 78 76 75 74 75 76 76 76 76 76 76
76 81 84 86 86 86 88 89 91 91 92 94 96 98 99 100 100 101 101 102 102 102 102 100 96 93 90 87 85 83 81 79 77 76 76 77 78 79 80 80 81 81
81 87 91 92 92 92 92 92 93 94 94 95 97 98 100 101 102 103 103 103 103 103 101 99 96 93 90 88 86 83 81 80 79 79 80 81 82 84 85 86 85 84
81 88 93 93 92 91 91 91 92 94 95 96 97 99 101 103 104 103 102 102 101 100 99 99 98 96 93 91 88 86 85 84 84 85 87 88 89 90 90 89 88 87
76 84 89 89 86 84 85 87 89 91 93 96 98 100 103 104 104 103 101 100 100 100 101 101 100 99 96 94 92 92 92 92 93 93 94 95 95 94 93 92 91 90
80 86 90 90 89 88 90 93 95 96 99 102 104 105 105 105 105 104 103 103 104 105 105 105 103 101 98 97 96 97 98 99 99 98 98 99 99 98 96 95 94 93
87 92 95 97 98 98 99 100 102 103 104 106 107 108 108 107 107 107 107 109 110 110 109 108 106 103 101 101 101 101 102 101 101 101 101 101 101 100 98 97 95 93
93 96 99 100 101 102 102 103 104 105 106 107 109 111 112 111 110 110 112 115 115 114 112 111 109 107 106 105 105 104 103 102 102 102 101 100 99 98 97 95 94 91
96 98 100 101 102 103 104 104 105 107 108 110 112 115 116 115 114 115 118 118 117 114 113 112 112 112 110 109 108 106 104 102 101 100 99 97 96 95 94 93 90 87
99 101 102 103 104 105 106 106 108 110 112 114 116 118 119 119 118 119 120 119 117 115 115 115 115 115 113 111 109 106 103 100 98 96 95 95 93 92 91 90 87 83
102 104 105 107 107 108 109 110 112 114 116 117 119 120 121 122 121 121 120 120 120 119 118 118 117 115 113 111 108 104 100 97 94 93 92 92 91 90 89 87 84 81
106 108 109 111 111 112 113 115 116 118 119 120 121 121 123 124 123 121 121 121 122 122 120 118 116 113 110 108 105 102 98 94 92 91 90 89 89 88 87 85 82 79
110 111 112 113 114 115 116 118 120 121 121 121 121 121 123 123 123 122 122 122 121 119 117 115 111 108 106 104 102 100 96 93 91 88 87 87 87 86 85 83 80 77
114 115 115 116 116 117 118 120 122 122 122 121 121 121 122 122 122 122 120 118 116 114 111 108 106 104 102 100 98 97 95 93 90 87 86 85 85 84 82 80 77 76
117 118 118 119 119 120 120 121 123 124 123 122 122 121 121 120 120 118 116 113 110 107 105 103 102 100 99 97 95 94 93 91 89 87 85 84 82 81 79 77 76 75
120 120 121 121 122 122 122 122 123 123 122 121 120 119 117 116 114 112 110 107 105 103 101 99 98 97 96 94 93 91 90 89 88 86 84 82 80 79 77 76 75 74
120 120 120 120 120 121 121 120 120 119 117 116 115 113 111 110 108 106 104 102 100 99 97 95 94 94 93 91 90 88 87 86 85 84 82 80 78 76 75 74 73 73
117 116 116 115 115 115 115 115 114 113 112 111 109 107 106 105 103 101 99 98 96 95 93 91 90 89 89 88 87 86 85 83 82 80 79 77 76 75 74 73 73 73
112 111 111 110 110 110 109 109 109 109 108 107 105 103 101 100 98 96 94 93 92 90 87 86 84 84 85 85 84 84 83 81 80 78 77 76 75 74 74 73 73 72
107 107 106 106 105 105 105 105 106 106 105 103 101 99 97 95 93 91 89 87 86 84 82 81 80 79 80 81 82 82 81 80 79 77 76 75 74 74 73 72 71 69
Wind_Direction
301 300 300 299 298 297 296 295 294 292 291 286 281 281 283 284 285 287 287 289 291 292 291 290 290 291 293 293 291 289 286 285 284 283 283 282 281 280 279 278 277 275
299 298 297 296 294 295 299 299 296 293 290 285 284 284 283 281 283 285 287 290 293 294 294 293 292 293 293 293 292 289 286 284 282 281 281 281 281 280 278 277 277 276
298 297 294 291 289 290 293 290 286 285 284 283 285 286 284 283 284 286 289 292 294 295 295 294 294 293 293 293 291 287 285 283 281 279 280 281 281 280 279 278 277 276
291 292 291 288 284 281 278 275 276 279 282 283 286 287 286 286 286 288 291 294 295 295 295 295 295 294 294 293 290 286 285 283 280 279 279 280 281 281 280 278 277 276
280 284 287 286 283 280 278 278 280 284 286 287 287 288 288 287 288 289 291 293 293 293 293 294 294 294 293 292 289 287 286 284 282 281 280 280 281 281 280 278 277 276
277 281 283 283 283 282 282 283 284 285 286 286 286 286 286 287 288 289 289 290 290 291 291 291 291 291 291 290 289 288 287 286 284 282 281 281 281 281 280 278 277 277
279 280 280 280 281 280 280 281 282 282 283 284 285 285 286 286 287 288 288 288 289 289 289 289 289 288 288 288 288 287 286 285 284 283 282 281 281 280 279 278 277 276
282 282 281 281 281 281 280 280 281 281 281 281 283 284 284 286 287 287 287 287 287 287 287 287 287 287 287 286 286 286 285 285 284 283 282 281 281 281 280 278 277 275
284 284 283 283 282 282 282 283 283 283 283 283 283 283 284 285 285 285 285 286 286 286 287 288 288 288 287 287 287 287 286 286 285 284 284 283 283 282 280 278 276 274
285 285 285 284 283 283 284 284 284 285 284 284 284 284 284 284 284 284 284 285 286 287 288 289 289 289 289 289 289 289 288 288 287 287 286 285 284 282 280 278 276 275
281 282 282 283 284 284 284 284 285 285 285 284 285 285 285 285 285 285 286 287 288 288 289 289 289 289 290 291 291 291 291 290 289 289 288 286 284 282 280 279 277 276
275 276 277 279 281 281 282 283 284 284 284 285 285 285 285 285 286 287 289 289 289 289 288 289 289 289 290 290 291 291 290 290 289 289 288 286 285 283 281 280 279 277
275 275 276 278 279 280 281 282 282 283 284 284 285 285 285 286 287 289 290 289 289 288 289 289 289 290 290 291 290 289 289 288 289 288 287 286 284 283 282 281 280 278
278 278 279 280 281 281 282 282 282 283 283 284 284 285 286 287 289 289 289 288 288 288 289 290 291 291 291 290 290 289 289 289 289 288 286 285 284 283 282 281 281 280
281 281 281 282 282 282 282 283 283 283 283 283 284 285 286 287 288 288 287 286 288 289 290 291 291 291 291 290 290 290 289 289 288 287 286 285 284 283 283 282 282 282
281 281 281 281 281 281 281 281 281 281 282 282 283 284 285 286 286 286 286 288 289 290 291 291 291 291 291 291 290 290 289 289 288 287 287 285 284 283 283 283 283 282
281 281 281 281 280 280 280 280 280 280 281 281 282 283 284 285 285 286 288 289 290 290 290 291 291 291 291 291 290 290 290 289 288 287 286 285 284 284 283 283 283 282
281 281 281 280 280 280 280 280 280 280 280 281 282 283 283 284 286 287 288 288 288 289 289 290 290 290 290 291 290 290 290 289 288 286 285 284 284 284 283 283 283 282
282 281 281 281 281 281 280 280 280 280 281 281 282 283 283 284 285 286 287 287 287 288 288 289 290 290 290 290 290 290 289 288 286 285 284 284 283 283 284 284 284 283
282 282 281 281 281 280 280 280 281 281 281 282 282 283 284 284 285 286 286 287 287 288 288 289 289 289 289 289 289 289 288 287 285 284 283 283 283 283 283 284 284 283
283 282 282 282 281 281 281 281 281 282 282 283 283 284 284 285 285 286 286 287 287 288 288 288 288 288 288 288 287 287 286 285 284 283 283 283 283 284 284 284 284 283
282 282 282 282 282 281 281 281 281 282 283 283 283 284 284 284 285 285 286 286 287 287 287 287 287 287 287 286 285 284 284 283 283 283 283 283 284 284 284 283 282 282
281 281 280 280 280 281 281 281 281 282 282 283 283 283 283 284 284 285 285 285 285 286 286 286 286 285 285 284 283 282 282 282 282 282 283 283 283 282 282 282 281 281
280 280 280 279 280 280 280 281 281 282 282 282 282 282 283 283 284 284 285 285 284 284 284 284 284 283 283 282 282 281 281 281 282 283 283 283 282 282 282 281 281 280
279 279 279 280 280 280 280 281 281 281 281 282 282 282 283 283 283 283 283 283 283 283 283 283 282 281 281 281 281 281 282 282 283 283 283 282 282 281 281 281 281 281
279 279 279 280 280 280 280 280 280 281 281 282 282 283 283 283 283 283 283 283 283 284 283 282 281 280 280 280 281 281 282 282 282 282 281 281 280 280 280 281 281 281
Height
10706 10704 10702 10699 10697 10696 10694 10692 10690 10689 10689 10689 10686 10685 10684 10684 10684 10683 10683 10683 10683 10682 10681 10680 10679 10679 10679 10679 10679 10679 10678 10678 10677 10676 10676 10676 10675 10676 10676 10675 10676 10675
10699 10698 10695 10692 10690 10691 10691 10686 10682 10679 10678 10678 10677 10676 10676 10676 10676 10675 10675 10674 10674 10674 10673 10672 10671 10671 10671 10671 10671 10671 10670 10669 10668 10668 10668 10668 10667 10667 10667 10667 10667 10667
10691 10687 10685 10683 10684 10689 10691 10685 10677 10673 10671 10670 10670 10668 10668 10667 10667 10666 10665 10665 10664 10663 10663 10662 10661 10661 10662 10662 10662 10662 10661 10660 10659 10659 10660 10659 10658 10658 10658 10658 10658 10657
10679 10676 10675 10675 10677 10681 10683 10678 10672 10668 10665 10664 10662 10661 10660 10658 10657 10656 10654 10653 10652 10652 10651 10650 10650 10650 10651 10652 10652 10651 10651 10650 10650 10651 10651 10650 10648 10649 10648 10648 10648 10647
10670 10669 10668 10668 10669 10670 10670 10667 10663 10660 10658 10656 10654 10652 10651 10649 10647 10646 10644 10643 10642 10641 10640 10639 10639 10639 10639 10640 10641 10641 10640 10640 10640 10641 10641 10639 10637 10638 10638 10637 10637 10637
10665 10664 10662 10661 10662 10661 10659 10656 10654 10651 10649 10648 10646 10643 10641 10639 10638 10636 10634 10633 10632 10631 10630 10629 10629 10628 10628 10628 10628 10629 10629 10629 10629 10628 10629 10628 10626 10626 10625 10625 10625 10625
10659 10656 10654 10653 10653 10652 10650 10647 10644 10642 10640 10637 10635 10632 10629 10628 10627 10625 10623 10622 10621 10619 10618 10618 10618 10617 10617 10617 10617 10617 10617 10617 10617 10616 10616 10616 10615 10614 10613 10613 10613 10613
10652 10646 10642 10641 10641 10639 10638 10635 10633 10632 10630 10627 10624 10621 10618 10617 10615 10613 10612 10611 10609 10607 10606 10605 10605 10605 10605 10605 10605 10604 10604 10604 10604 10604 10603 10603 10602 10601 10599 10598 10598 10598
10643 10635 10629 10628 10628 10626 10624 10623 10620 10619 10618 10616 10613 10610 10607 10605 10602 10601 10600 10598 10596 10593 10591 10590 10590 10590 10590 10591 10591 10591 10591 10591 10590 10589 10589 10588 10587 10585 10583 10581 10581 10582
10634 10623 10616 10614 10614 10614 10613 10611 10608 10606 10604 10602 10600 10597 10595 10591 10589 10589 10588 10586 10583 10580 10578 10576 10574 10574 10575 10575 10576 10576 10576 10575 10574 10574 10572 10571 10569 10568 10566 10565 10566 10566
10624 10613 10604 10602 10603 10603 10602 10600 10597 10595 10592 10589 10587 10585 10582 10578 10574 10575 10574 10572 10570 10567 10565 10563 10562 10562 10562 10562 10561 10560 10560 10559 10558 10557 10555 10554 10553 10552 10551 10550 10550 10550
10615 10605 10596 10593 10594 10594 10593 10590 10587 10584 10580 10577 10574 10571 10568 10565 10561 10560 10559 10557 10554 10551 10550 10550 10549 10549 10550 10549 10548 10546 10544 10542 10541 10540 10539 10537 10535 10534 10534 10533 10533 10534
10606 10597 10590 10587 10585 10584 10582 10580 10577 10573 10569 10565 10560 10556 10554 10553 10550 10547 10545 10541 10537 10536 10536 10535 10534 10535 10536 10535 10534 10532 10530 10528 10525 10524 10522 10520 10518 10516 10516 10515 10515 10516
10593 10587 10582 10578 10575 10572 10570 10568 10564 10560 10557 10552 10547 10542 10539 10539 10539 10536 10531 10525 10522 10522 10522 10520 10519 10520 10520 10518 10517 10516 10514 10513 10510 10507 10506 10504 10502 10500 10498 10498 10498 10498
10579 10574 10570 10566 10562 10559 10556 10553 10550 10546 10542 10539 10535 10529 10524 10524 10525 10521 10514 10509 10509 10510 10509 10506 10504 10503 10502 10501 10500 10499 10498 10497 10494 10491 10488 10487 10486 10484 10482 10481 10481 10482
10567 10562 10557 10553 10550 10546 10543 10540 10537 10533 10529 10525 10522 10517 10512 10510 10510 10505 10498 10496 10497 10496 10494 10492 10489 10486 10484 10483 10481 10481 10480 10479 10477 10474 10471 10470 10469 10469 10467 10466 10466 10467
10555 10550 10545 10540 10538 10535 10531 10527 10524 10520 10516 10512 10508 10504 10499 10495 10493 10491 10487 10484 10482 10480 10479 10477 10474 10471 10469 10466 10463 10462 10462 10462 10461 10459 10456 10454 10453 10453 10452 10451 10452 10453
10540 10536 10532 10527 10523 10520 10516 10512 10508 10505 10501 10498 10495 10491 10485 10480 10477 10477 10475 10472 10468 10466 10465 10462 10460 10457 10454 10450 10447 10446 10445 10445 10445 10444 10442 10440 10438 10437 10437 10437 10438 10439
10523 10519 10516 10512 10508 10504 10500 10495 10491 10488 10484 10482 10480 10477 10472 10467 10464 10462 10460 10458 10455 10453 10450 10448 10446 10442 10438 10435 10432 10431 10429 10429 10429 10429 10428 10426 10424 10423 10423 10424 10424 10425
10504 10500 10497 10494 10490 10487 10483 10478 10473 10469 10467 10465 10464 10461 10457 10453 10450 10447 10445 10443 10441 10438 10436 10434 10431 10427 10424 10421 10419 10417 10415 10413 10414 10414 10413 10412 10411 10410 10410 10411 10410 10410
10483 10480 10476 10473 10469 10467 10464 10460 10455 10451 10449 10447 10445 10443 10441 10437 10434 10431 10429 10428 10426 10423 10422 10420 10417 10413 10410 10408 10406 10404 10401 10399 10399 10399 10399 10399 10398 10397 10397 10397 10396 10396
10464 10461 10457 10453 10449 10446 10444 10441 10438 10435 10433 10431 10429 10427 10424 10422 10420 10417 10416 10414 10412 10409 10408 10407 10404 10400 10397 10396 10393 10390 10388 10385 10384 10384 10384 10385 10386 10385 10385 10384 10383 10383
10446 10442 10439 10436 10433 10429 10427 10424 10422 10420 10418 10415 10414 10412 10410 10407 10406 10404 10403 10401 10399 10396 10394 10394 10392 10387 10384 10382 10379 10376 10374 10372 10371 10370 10371 10372 10373 10372 10371 10371 10370 10370
10426 10424 10422 10420 10418 10415 10412 10409 10407 10404 10402 10399 10398 10398 10396 10394 10392 10391 10390 10387 10385 10384 10382 10381 10380 10375 10370 10367 10364 10361 10359 10359 10358 10358 10359 10359 10358 10357 10357 10357 10357 10357
10409 10407 10406 10404 10402 10399 10396 10394 10391 10388 10386 10384 10383 10382 10382 10381 10379 10378 10377 10375 10372 10372 10370 10368 10366 10362 10357 10353 10349 10346 10345 10345 10346 10346 10347 10346 10345 10345 10345 10345 10345 10346
10393 10392 10390 10388 10386 10384 10381 10378 10375 10372 10370 10368 10368 10367 10367 10366 10365 10363 10363 10362 10359 10357 10356 10353 10350 10347 10343 10339 10336 10335 10333 10333 10333 10334 10335 10334 10334 10334 10334 10334 10334 10335